[[{"header":{"parameterUnit":"m.s-1","parameterCategory":1,"la1":30.2991,"la2":30.254,"lo1":-89.0895,"lo2":-89.0444,"dy":0.0017,"dx":0.0017,"nx":28,"ny":28,"refTime":"2023-11-07T09:00:00:Z","depth":0,"parameterNumber":2,"parameterNumberName":"U-component_of_WINDS"},"data":[0,0,0,0,0,0,0,0,0,0,0,0,0,0,0,0,0,0,0,0,0,0,0,0,0,0,0,0,0,0,0,0,0,0,0,0,0,0,0,0,0,0,0,0,0,0,0,0,0,0,0,0,0,0,0,0,0,0,-0.8977,-0.8978,0,-0.8997,-0.8997,-0.8997,-0.89,-0.8897,-0.8894,-0.8892,-0.8912,-0.8915,-0.8918,0,0,0,0,0,0,0,0,0,0,0,0,0,-0.8857,-0.8859,-0.8977,-0.8978,-0.8978,-0.8997,-0.8997,-0.8997,-0.89,-0.8897,-0.8894,-0.889,-0.8911,-0.8915,-0.8919,0,0,0,0,0,0,0,0,0,0,0,0,0,-0.8896,-0.886,-0.8977,-0.8932,-0.8928,-0.8997,-0.8997,-0.8997,-0.8901,-0.8897,-0.8893,-0.8889,-0.891,-0.8914,-0.8919,-0.9033,0,0,-0.8934,-0.8936,0,0,0,0,0,0,0,0,-0.8894,-0.8901,-0.8938,-0.8935,-0.8931,-0.8942,-0.8962,-0.9009,-0.8902,-0.8911,-0.8892,-0.8887,-0.8925,-0.8929,-0.8941,-0.9034,-0.9035,-0.8934,-0.8937,-0.8939,-0.894,0,0,0,0,0,0,0,-0.8891,-0.8899,-0.8985,-0.8939,-0.8934,-0.891,-0.8911,-0.897,-0.8942,-0.891,-0.8903,-0.8907,-0.8923,-0.8937,-0.8941,-0.9035,-0.8934,-0.8938,-0.8941,-0.8943,-0.9219,-0.9224,0,0,0,0,0,0,-0.8895,-0.8898,-0.8984,-0.8986,-0.8902,-0.8916,-0.8917,-0.8942,-0.8941,-0.8937,-0.891,-0.8902,-0.8931,-0.8936,-0.8942,-0.9072,-0.8939,-0.8943,-0.8946,-0.9215,-0.922,-0.9225,0,0,0,0,0,0,-0.8892,-0.8903,-0.8984,-0.894,-0.8948,-0.8923,-0.8952,-0.8945,-0.8959,-0.8941,-0.8935,-0.893,-0.8928,-0.8935,-0.901,-0.9072,-0.8946,-0.895,-0.921,-0.9217,-0.9223,-0.9337,0,0,0,0,0,0,-0.8889,-0.8903,-0.8946,-0.8941,-0.8951,-0.9052,-0.8956,-0.8948,-0.8968,-0.8957,-0.8958,-0.8954,-0.8925,-0.9004,-0.9015,-0.9076,-0.8954,-0.9204,-0.9213,-0.9221,-0.9327,-0.9347,-0.9363,0,0,0,0,0,-0.8885,-0.8978,-0.8949,-0.896,-0.9004,-0.9056,-0.9061,-0.9026,-0.8973,-0.9016,-0.9004,-0.8954,-0.9064,-0.9012,-0.9024,-0.9088,-0.92,-0.921,-0.922,-0.9319,-0.9343,-0.9363,0,0,0,0,0,0,-0.8991,-0.8976,-0.8944,-0.9037,-0.9049,-0.9039,-0.9092,-0.9052,-0.9078,-0.9067,-0.9022,-0.9023,-0.9106,-0.9105,-0.9047,-0.9197,-0.9123,-0.9136,-0.9194,-0.9216,-0.9234,-0.9231,-0.8958,0,0,0,0,0,-0.9025,-0.9068,-0.9054,-0.9138,-0.9145,-0.9118,-0.9139,-0.9111,-0.9121,-0.9125,-0.9118,-0.913,-0.9167,-0.9192,-0.9225,-0.9328,-0.9325,-0.9377,-0.9395,-0.941,-0.9421,-0.9473,-0.9495,-0.9259,-0.9258,-0.9258,0,0,-0.9095,-0.9093,-0.9123,-0.9159,-0.9164,-0.9209,-0.9123,-0.9175,-0.9208,-0.9133,-0.9203,-0.9199,-0.9209,-0.9298,-0.9337,-0.9299,-0.9486,-0.9423,-0.9435,-0.9437,-0.9486,-0.9508,-0.9528,-0.9265,-0.9264,-0.9263,0,0,-0.9247,-0.9251,-0.932,-0.9327,-0.9336,-0.9317,-0.9334,-0.9331,-0.9326,-0.9395,-0.9339,-0.9379,-0.9444,-0.9452,-0.9465,-0.9621,-0.9575,-0.9633,-0.9725,-0.9777,-0.9795,-0.9812,-0.9865,-0.9885,-0.9644,-0.9645,-0.9645,0,-0.9334,-0.94,-0.9361,-0.9416,-0.9433,-0.9367,-0.9437,-0.9446,-0.9466,-0.9478,-0.9436,-0.9515,-0.9518,-0.9607,-0.9645,-0.9658,-0.9675,-0.9631,-0.9796,-0.9812,-0.9826,-0.9877,-0.9897,-0.9651,-0.9651,-0.965,-0.9649,0,-0.9505,-0.9552,-0.9607,-0.9627,-0.965,-0.9713,-0.9683,-0.9711,-0.9681,-0.9667,-0.9738,-0.9739,-0.977,-0.979,-0.9761,-0.9875,-0.9851,-0.9804,-0.9728,-0.9856,-0.9903,-0.9922,-0.9661,-0.9659,-0.9657,-0.9655,0,0,-0.9722,-0.9719,-0.974,-0.9747,-0.9753,-0.9788,-0.9848,-0.9878,-0.9902,-0.9919,-0.9966,-1.0023,-0.9978,-0.9993,-0.9965,-1.0011,-1.0131,-0.9957,-0.9957,-0.9988,-1.0254,-1.0288,-1.0311,-1.0103,-1.0106,-1.0109,-1.0253,0,-0.9869,-0.9969,-0.9935,-1.0037,-1.0079,-1.0018,-1.007,-1.0078,-1.0067,-1.0101,-1.0089,-1.0129,-1.0069,-1.0077,-1.012,-1.0108,-1.0184,-1.0097,-1.0145,-1.0147,-1.0142,-1.0336,-1.0372,-1.0507,-1.0271,-1.0274,-1.0276,0,-1.0052,-1.0075,-1.0181,-1.0178,-1.0194,-1.0241,-1.0265,-1.0299,-1.0308,-1.0296,-1.0313,-1.0276,-1.0333,-1.026,-1.0338,-1.028,-1.0298,-1.0295,-1.0299,-1.03,-1.0218,-1.034,-1.055,-1.0569,-1.0305,-1.0303,-1.03,0,-1.0197,-1.0254,-1.0324,-1.0333,-1.0332,-1.0366,-1.0367,-1.0372,-1.0392,-1.0413,-1.0425,-1.0454,-1.0469,-1.0493,-1.0463,-1.0413,-1.0545,-1.047,-1.0536,-1.0537,-1.0564,-1.0563,-1.0778,-1.0581,-1.0581,-1.0581,-1.058,0,-1.0362,-1.0429,-1.0389,-1.0432,-1.0504,-1.0466,-1.0539,-1.0533,-1.0538,-1.0578,-1.0528,-1.0567,-1.0528,-1.0563,-1.0542,-1.0608,-1.0616,-1.0608,-1.0601,-1.0611,-1.0612,-1.062,-1.0609,-1.0586,-1.0585,-1.0584,-1.0583,0,-1.0534,-1.0511,-1.0583,-1.0576,-1.0576,-1.0629,-1.0623,-1.0662,-1.0648,-1.07,-1.071,-1.0687,-1.0727,-1.07,-1.074,-1.0725,-1.0812,-1.0794,-1.0809,-1.0803,-1.087,-1.0863,-1.1096,-1.1123,-1.0912,-1.0914,-1.0916,0,-1.064,-1.069,-1.0688,-1.0711,-1.0715,-1.0754,-1.0774,-1.0738,-1.0761,-1.0774,-1.0812,-1.0847,-1.0872,-1.0938,-1.0925,-1.0955,-1.0935,-1.1014,-1.0939,-1.0947,-1.0932,-1.0929,-1.0932,-1.1029,-1.1031,-1.1033,-1.1035,0,-1.0829,-1.0815,-1.0845,-1.0872,-1.0897,-1.0916,-1.0931,-1.0953,-1.0917,-1.0945,-1.0984,-1.1004,-1.1044,-1.1079,-1.1104,-1.1105,-1.1064,-1.1059,-1.1076,-1.1085,-1.1091,-1.1086,-1.0848,-1.1053,-1.1052,-1.105,-1.1049,-1.1048,-1.097,-1.101,-1.1015,-1.105,-1.1058,-1.1073,-1.1109,-1.1099,-1.1131,-1.116,-1.1138,-1.1184,-1.1191,-1.1219,-1.1226,-1.1261,-1.1228,-1.1253,-1.1259,-1.1265,-1.1273,-1.1088,-1.1266,-1.1266,-1.1265,-1.1265,-1.1264,0,-1.1154,-1.1154,-1.1187,-1.1209,-1.1237,-1.1196,-1.1211,-1.1236,-1.1277,-1.1287,-1.1314,-1.1358,-1.1391,-1.1382,-1.1411,-1.1441,-1.1423,-1.145,-1.1446,-1.1446,-1.1302,-1.1283,-1.1464,-1.1464,-1.1464,-1.1464,-1.1464,-1.1464,-1.1253,-1.1318,-1.1305,-1.1374,-1.1373,-1.1417,-1.1429,-1.1442,-1.145,-1.1501,-1.1529,-1.1522,-1.1524,-1.1553,-1.1582,-1.1578,-1.159,-1.1623,-1.1613,-1.1477,-1.1457,-1.1438,-1.142,-1.1627,-1.1627,-1.1754,-1.1755,-1.1756]},{"header":{"parameterUnit":"m.s-1","parameterCategory":1,"la1":30.2991,"la2":30.254,"lo1":-89.0895,"lo2":-89.0444,"dy":0.0017,"dx":0.0017,"nx":28,"ny":28,"refTime":"2023-11-07T09:00:00:Z","depth":0,"parameterNumber":3,"parameterNumberName":"V-component_of_WINDS"},"data":[0,0,0,0,0,0,0,0,0,0,0,0,0,0,0,0,0,0,0,0,0,0,0,0,0,0,0,0,0,0,0,0,0,0,0,0,0,0,0,0,0,0,0,0,0,0,0,0,0,0,0,0,0,0,0,0,0,0,2.2445,2.2445,0,2.2397,2.2397,2.2396,2.2449,2.2451,2.2453,2.2455,2.2401,2.2398,2.2395,0,0,0,0,0,0,0,0,0,0,0,0,0,2.2581,2.2578,2.2445,2.2445,2.2444,2.2397,2.2397,2.2396,2.2449,2.2451,2.2454,2.2456,2.2402,2.2398,2.2394,0,0,0,0,0,0,0,0,0,0,0,0,0,2.2526,2.2577,2.2445,2.2465,2.2466,2.2397,2.2397,2.2396,2.2448,2.2451,2.2454,2.2457,2.2404,2.2399,2.2394,2.2302,0,0,2.2378,2.2376,0,0,0,0,0,0,0,0,2.2529,2.2521,2.2463,2.2464,2.2465,2.2432,2.2425,2.2364,2.2448,2.2455,2.2455,2.2459,2.2409,2.2404,2.2388,2.2299,2.2297,2.2378,2.2375,2.2373,2.2371,0,0,0,0,0,0,0,2.2533,2.2523,2.2426,2.2462,2.2463,2.2475,2.2471,2.2413,2.2415,2.2455,2.2458,2.2452,2.241,2.2392,2.2387,2.2296,2.2378,2.2374,2.2371,2.2369,2.2131,2.2128,0,0,0,0,0,0,2.2535,2.2526,2.2428,2.2425,2.2505,2.2471,2.2466,2.244,2.2416,2.2415,2.245,2.2455,2.2399,2.2392,2.2385,2.2276,2.2373,2.2368,2.2365,2.2134,2.213,2.2127,0,0,0,0,0,0,2.2538,2.2526,2.243,2.2477,2.2465,2.2465,2.2435,2.2437,2.242,2.2412,2.2413,2.2431,2.2401,2.2392,2.2323,2.2275,2.2366,2.2361,2.2138,2.2133,2.2129,2.2057,0,0,0,0,0,0,2.2541,2.2526,2.2492,2.2475,2.2463,2.2368,2.2432,2.2434,2.2411,2.2418,2.2395,2.2394,2.2403,2.233,2.2318,2.227,2.2357,2.2143,2.2136,2.213,2.2064,2.2051,2.2039,0,0,0,0,0,2.2546,2.2472,2.249,2.2477,2.2419,2.2366,2.2358,2.2371,2.2407,2.2372,2.2368,2.2395,2.2283,2.2322,2.2309,2.2259,2.2146,2.2138,2.2131,2.2069,2.2053,2.2039,0,0,0,0,0,0,2.248,2.247,2.2489,2.2408,2.2388,2.2375,2.233,2.2353,2.232,2.2327,2.2344,2.2338,2.2265,2.2255,2.2299,2.2169,2.222,2.221,2.2178,2.2162,2.215,2.2153,2.2353,0,0,0,0,0,2.2457,2.2415,2.2408,2.2337,2.2326,2.233,2.2307,2.2319,2.2298,2.2289,2.2279,2.2256,2.2217,2.2189,2.2152,2.2064,2.206,2.2023,2.2011,2.2001,2.1991,2.1944,2.1928,2.2102,2.2103,2.2103,0,0,2.2406,2.2396,2.2368,2.2324,2.2309,2.2265,2.2322,2.2272,2.224,2.2281,2.2215,2.2208,2.2183,2.2105,2.2069,2.2094,2.1942,2.1991,2.1983,2.1979,2.1935,2.1918,2.1904,2.2097,2.2098,2.2099,0,0,2.2293,2.2281,2.2221,2.2206,2.2184,2.2188,2.2174,2.2158,2.2155,2.209,2.2121,2.2082,2.2012,2.1994,2.1975,2.1858,2.1882,2.1846,2.178,2.1735,2.1721,2.1709,2.1667,2.1652,2.1836,2.1836,2.1836,0,2.2233,2.2168,2.2187,2.2136,2.2115,2.2154,2.2093,2.2077,2.2043,2.2028,2.2057,2.1972,2.1958,2.1876,2.1848,2.1832,2.1816,2.1847,2.1722,2.171,2.1699,2.1659,2.1643,2.1832,2.1832,2.1833,2.1833,0,2.2096,2.2051,2.2005,2.1974,2.1949,2.1893,2.1902,2.1874,2.189,2.189,2.1824,2.181,2.1771,2.1753,2.1766,2.1673,2.1689,2.172,2.1771,2.1678,2.164,2.1625,2.1826,2.1827,2.1829,2.183,0,0,2.1936,2.1919,2.1901,2.1888,2.1869,2.1834,2.178,2.1744,2.172,2.1696,2.1651,2.1593,2.1622,2.1601,2.1614,2.1574,2.1483,2.161,2.161,2.1586,2.1379,2.1355,2.1337,2.15,2.1497,2.1494,2.1381,0,2.1821,2.173,2.1746,2.1657,2.1616,2.1653,2.1607,2.159,2.1589,2.1554,2.1554,2.1512,2.1554,2.1542,2.1505,2.1501,2.1441,2.151,2.1457,2.1455,2.146,2.1318,2.1292,2.1186,2.1367,2.1364,2.1363,0,2.1675,2.1648,2.1555,2.1544,2.1528,2.1485,2.1455,2.1421,2.1402,2.1405,2.1384,2.1404,2.135,2.1404,2.133,2.1377,2.1357,2.1352,2.1349,2.1342,2.1402,2.1307,2.1152,2.1136,2.134,2.1342,2.1343,0,2.1567,2.1508,2.1445,2.1433,2.1419,2.1388,2.1381,2.1366,2.1343,2.1316,2.1302,2.1269,2.125,2.1223,2.1234,2.1272,2.1158,2.1213,2.1158,2.1158,2.1131,2.1132,2.0969,2.112,2.112,2.112,2.1121,0,2.1437,2.1378,2.1397,2.1358,2.1294,2.1314,2.125,2.1247,2.1233,2.1194,2.1225,2.1187,2.1204,2.1168,2.1176,2.1114,2.1105,2.1105,2.1108,2.1102,2.1102,2.1087,2.1095,2.1116,2.1117,2.1118,2.1119,0,2.1304,2.1315,2.1249,2.1242,2.1239,2.1192,2.1185,2.1149,2.1153,2.1103,2.1092,2.1097,2.1056,2.1066,2.102,2.1025,2.0947,2.096,2.0954,2.0956,2.0902,2.0906,2.0723,2.0699,2.0866,2.0864,2.0863,0,2.122,2.1176,2.1165,2.1142,2.1133,2.1095,2.1074,2.1092,2.1069,2.1046,2.1012,2.0975,2.0945,2.0878,2.0877,2.0843,2.0854,2.0792,2.0848,2.0844,2.0852,2.0854,2.085,2.078,2.0778,2.0776,2.0775,0,2.1068,2.1077,2.1045,2.1016,2.099,2.0967,2.0947,2.0926,2.0944,2.0916,2.0875,2.0853,2.0808,2.077,2.0739,2.073,2.0755,2.0758,2.0743,2.0736,2.0734,2.0734,2.0922,2.0761,2.0763,2.0764,2.0764,2.0765,2.0957,2.092,2.0908,2.0872,2.086,2.0841,2.0807,2.0808,2.0775,2.0741,2.0755,2.0708,2.0693,2.0654,2.0642,2.0606,2.0629,2.0608,2.0603,2.0597,2.059,2.0742,2.0601,2.0601,2.0601,2.0602,2.0602,0,2.0807,2.0801,2.0769,2.0741,2.0713,2.0742,2.0723,2.0697,2.0656,2.0641,2.0612,2.0567,2.0531,2.0528,2.0495,2.0466,2.0477,2.0457,2.0458,2.0456,2.0571,2.0587,2.0449,2.0449,2.0449,2.0449,2.0449,2.0449,2.0725,2.0665,2.0672,2.0607,2.0602,2.0558,2.0545,2.0528,2.0516,2.0464,2.0435,2.0435,2.0424,2.0391,2.0359,2.036,2.0345,2.032,2.0325,2.0432,2.0448,2.0462,2.0477,2.0317,2.0317,2.0212,2.0211,2.021]}]]